Location: Kerb�bon
(47.7970°N, 3.3487°W)
Time: 13:08:52
(UTC+00:00)

SL-8 Rocket - Pass Details

Date: 12 May 2021
Orbit: 957 x 990 km, 82.9° (Epoch: 18 June)

Event Time Altitude Azimuth Distance (km) Brightness Sun altitude
Rises 22:55:15 0° 350° (N) 3,717 8.5 -21.7°
Reaches altitude 10° 22:57:47 10° 350° (N) 2,764 7.5 -21.9°
Maximum altitude 23:04:09 84° 264° (W) 1,001 4.0 -22.2°
Enters shadow 23:06:26 43° 179° (S) 1,362 4.3 -22.3°
